Tracking 35331 objects as of 15-Sep-2026
HD Live streaming from Space Station
objects crossing your sky now

FREGAT DEB


FREGAT DEB is no longer on orbit


NORAD ID: 47112
Int'l Code: 2011-037NH
Launch date: July 18, 2011
Source: Commonwealth of Independent States (former USSR) (CIS)
Launch site: TYURATAM MISSILE AND SPACE COMPLEX (TTMTR)
Decay date: 2024-10-10

Note: This is SATELLITE DEBRIS
Your satellite tracking list
Your tracking list is empty




NASA's NSSDC Master Catalog

Two Line Element Set (TLE):
1 47112U 11037NH  24285.21289337  .13524699  00000-0  94236-1 0  9997
2 47112  51.3851 271.0254 0079443  85.3573 275.6486 15.64192999189033
Source of the keplerian elements: AFSPC